Weather History for PHOG - December, 2012

Change the Weather History Date:

Monday, December 3, 2012

  Actual Average Record
Temperature  
Mean Temperature 79 °F 74 °F  
Max Temperature 85 °F 82 °F 89 °F (1955)
Min Temperature 73 °F 66 °F 58 °F (2009)
Degree Days  
Heating Degree Days 0 0  
Month to date heating degree days 0 0  
Since 1 July heating degree days 0 0  
Cooling Degree Days 14 9  
Month to date cooling degree days 31 29  
Year to date cooling degree days 3674 3736  
Growing Degree Days 28 (Base 50)    
Moisture  
Dew Point 70 °F    
Average Humidity 76    
Maximum Humidity 87    
Minimum Humidity 65    
Precipitation  
Precipitation T in 0.10 in 0.96 in (2007)
Month to date precipitation T 0.31  
Year to date precipitation 4.94 14.79  
Snow  
Snow 0.00 in - - ()
Month to date snowfall 0.0  
Since 1 July snowfall 0.0  
Snow Depth 0.00 in    
Sea Level Pressure  
Sea Level Pressure 29.97 in    
Wind  
Wind Speed 14 mph (SSW)    
Max Wind Speed 24 mph    
Max Gust Speed 30 mph    
Visibility 10 miles    
Events      
T = Trace of Precipitation, MM = Missing Value Source: NWS Daily Summary

Daily Weather History Graph

Daily Weather History Graph

Search for Another Location

Airport or City:

Trip Planner

Search our weather history database for the weather conditions in past years. The results will help you decide how hot, cold, wet, or windy it might be!

Date:

Astronomy

Dec. 03, 2012 Rise Set
Actual Time 6:47 AM HST 5:43 PM HST
Civil Twilight 6:23 AM HST 6:07 PM HST
Nautical Twilight 5:56 AM HST 6:35 PM HST
Astronomical Twilight 5:29 AM HST 7:02 PM HST
Moon 10:20 PM HST (12/3) 10:35 AM HST (12/3)
Length of Visible Light 11h 44m
Length of Day
10h 56m
Waning Gibbous, 76% of the Moon is Illuminated
Dec 3
Waning Gibbous
Dec 6
Last Quarter
Dec 12
New
Dec 19
First Quarter
Dec 28
Full

Hourly Weather History & Observations

Time (HST) Temp. Heat Index Dew Point Humidity Pressure Visibility Wind Dir Wind Speed Gust Speed Precip Events Conditions
12:54 AM 77.0 °F - 66.9 °F 71% 29.99 in 10.0 mi SW 11.5 mph - N/A   Mostly Cloudy
1:34 AM 77.0 °F - 68.0 °F 74% 29.97 in 10.0 mi South 11.5 mph - N/A   Overcast
1:47 AM 77.0 °F - 69.8 °F 78% 29.97 in 10.0 mi SSW 13.8 mph - N/A   Overcast
1:54 AM 77.0 °F - 70.0 °F 79% 29.98 in 10.0 mi SSW 15.0 mph - N/A   Overcast
2:54 AM 75.9 °F - 70.0 °F 82% 29.96 in 10.0 mi SSW 15.0 mph - N/A   Overcast
3:54 AM 75.9 °F - 71.1 °F 85% 29.94 in 10.0 mi SSW 16.1 mph - N/A   Mostly Cloudy
4:54 AM 75.9 °F - 71.1 °F 85% 29.94 in 10.0 mi SSW 17.3 mph - N/A   Clear
5:54 AM 75.0 °F - 72.0 °F 90% 29.95 in 10.0 mi SSW 15.0 mph - N/A   Partly Cloudy
6:54 AM 75.0 °F - 72.0 °F 90% 29.96 in 10.0 mi SSW 16.1 mph - N/A   Partly Cloudy
7:54 AM 77.0 °F - 72.0 °F 84% 29.96 in 10.0 mi SSW 20.7 mph 27.6 mph N/A   Clear
8:54 AM 81.0 °F 84.4 °F 70.0 °F 69% 29.99 in 10.0 mi SSW 17.3 mph 23.0 mph N/A   Scattered Clouds
9:54 AM 82.0 °F 86.3 °F 71.1 °F 69% 30.01 in 10.0 mi South 16.1 mph 20.7 mph N/A   Scattered Clouds
10:54 AM 82.9 °F 88.0 °F 72.0 °F 69% 30.00 in 10.0 mi SSW 18.4 mph - 0.00 in   Scattered Clouds
11:54 AM 84.0 °F 89.0 °F 71.1 °F 65% 29.98 in 10.0 mi SSW 18.4 mph - N/A   Partly Cloudy
12:54 PM 84.0 °F 89.6 °F 72.0 °F 67% 29.96 in 10.0 mi South 17.3 mph - N/A   Scattered Clouds
1:54 PM 84.9 °F 90.1 °F 71.1 °F 63% 29.93 in 10.0 mi South 19.6 mph - N/A   Scattered Clouds
2:54 PM 82.0 °F 85.9 °F 70.0 °F 67% 29.92 in 10.0 mi SSW 20.7 mph 25.3 mph N/A   Scattered Clouds
3:54 PM 82.9 °F 87.5 °F 71.1 °F 67% 29.94 in 10.0 mi SSW 16.1 mph 25.3 mph N/A   Scattered Clouds
4:54 PM 80.1 °F 82.7 °F 68.0 °F 67% 29.96 in 10.0 mi SSW 17.3 mph - N/A   Scattered Clouds
5:54 PM 79.0 °F - 68.0 °F 69% 29.97 in 10.0 mi SW 8.1 mph - N/A   Mostly Cloudy
6:54 PM 78.1 °F - 66.9 °F 68% 29.99 in 10.0 mi South 6.9 mph - N/A   Overcast
7:54 PM 77.0 °F - 68.0 °F 74% 30.01 in 10.0 mi South 4.6 mph - N/A   Overcast
8:54 PM 75.9 °F - 69.1 °F 79% 30.01 in 10.0 mi South 6.9 mph - N/A   Mostly Cloudy
9:54 PM 75.0 °F - 70.0 °F 84% 30.02 in 10.0 mi SSW 6.9 mph - N/A   Partly Cloudy
10:54 PM 75.0 °F - 70.0 °F 84% 30.03 in 10.0 mi SSE 4.6 mph - N/A   Clear
11:54 PM 73.0 °F - 69.1 °F 87% 30.02 in 10.0 mi SSE 4.6 mph - N/A   Clear